Retour au catalogue

STARLINK-30257

ActifCommunicationsVLEO
NORAD 57526·PAYLOAD·🇺🇸 United States

Lancé Aug 8, 2023 depuis Vandenberg Space Force Base

Loading…

Prochains Passages (prochaines 24 heures)

TLE

FraisSource: CelesTrak SupGP

Époque: Sep 14, 2026, 20:51 UTC

1 57526C 23115F   26257.86923611  .00035683  00000+0  12926-2 0  2578
2 57526  43.0013  13.3299 0001504 271.9735  56.6849 15.27556231    15

Suivez STARLINK-30257 en temps réel avec AllMySat

Download on the App Store